Weather History for Glenwood, MN

Change the Weather History Date:

Tuesday, May 14, 2013

  Actual Average Record
Temperature  
Mean Temperature 73 °F -  
Max Temperature 93 °F 69 °F 95 °F (2001)
Min Temperature 53 °F 44 °F 30 °F (1983)
Cooling Degree Days 8    
Growing Degree Days 23 (Base 50)    
Moisture  
Dew Point 41 °F    
Average Humidity 36    
Maximum Humidity 67    
Minimum Humidity 13    
Precipitation  
Precipitation 0.00 in - - ()
Sea Level Pressure  
Sea Level Pressure 29.63 in    
Wind  
Wind Speed 12 mph (WSW)    
Max Wind Speed 34 mph    
Max Gust Speed 43 mph    
Visibility 10 miles    
Events Rain    
Averages and records for this station are not official NWS values.
T = Trace of Precipitation, MM = Missing Value Source: NWS Daily Summary

Daily Weather History Graph

Daily Weather History Graph

Search for Another Location

Airport:

Trip Planner

Search our weather history database for the weather conditions in past years. The results will help you decide how hot, cold, wet, or windy it might be!

Date:

Astronomy

May. 14, 2013 Rise Set
Actual Time 5:51 AM CDT 8:44 PM CDT
Civil Twilight 5:16 AM CDT 9:19 PM CDT
Nautical Twilight 4:32 AM CDT 10:04 PM CDT
Astronomical Twilight 3:40 AM CDT 10:56 PM CDT
Moon 9:32 AM CDT (5/14) No Moon Set
Length of Visible Light 16h 03m
Length of Day
14h 53m
Waxing Crescent, 19% of the Moon is Illuminated
May 14
Waxing Crescent
May 17
First Quarter
May 24
Full
May 31
Last Quarter
Jun 8
New

Hourly Weather History & Observations

Time (CDT) Temp. Dew Point Humidity Pressure Visibility Wind Dir Wind Speed Gust Speed Precip Events Conditions
12:33 AM 64.4 °F 37.4 °F 37% 29.69 in 10.0 mi NW 5.8 mph - N/A   Clear
12:53 AM 64.4 °F 37.4 °F 37% 29.69 in 10.0 mi WNW 4.6 mph - N/A   Clear
1:13 AM 64.4 °F 37.4 °F 37% 29.69 in 10.0 mi WNW 4.6 mph - N/A   Clear
1:33 AM 62.6 °F 39.2 °F 42% 29.69 in 10.0 mi WSW 3.5 mph - N/A   Clear
1:53 AM 59.0 °F 39.2 °F 48% 29.69 in 10.0 mi SW 4.6 mph - N/A   Clear
2:14 AM 59.0 °F 39.2 °F 48% 29.69 in 10.0 mi SW 4.6 mph - N/A   Clear
2:33 AM 60.8 °F 39.2 °F 45% 29.69 in 10.0 mi Calm Calm - N/A   Clear
2:53 AM 60.8 °F 39.2 °F 45% 29.69 in 10.0 mi Calm Calm - N/A   Clear
3:14 AM 57.2 °F 39.2 °F 51% 29.68 in 10.0 mi South 3.5 mph - N/A   Clear
3:33 AM 55.4 °F 41.0 °F 58% 29.68 in 10.0 mi SSW 5.8 mph - N/A   Clear
3:53 AM 55.4 °F 41.0 °F 58% 29.67 in 10.0 mi SSW 4.6 mph - N/A   Clear
4:14 AM 55.4 °F 41.0 °F 58% 29.67 in 10.0 mi South 6.9 mph - N/A   Clear
4:53 AM 57.2 °F 42.8 °F 59% 29.66 in 10.0 mi SSE 5.8 mph - N/A   Clear
5:14 AM 55.4 °F 42.8 °F 63% 29.65 in 10.0 mi SSE 6.9 mph - N/A   Clear
5:33 AM 53.6 °F 42.8 °F 67% 29.64 in 10.0 mi SE 6.9 mph - N/A   Clear
5:53 AM 53.6 °F 41.0 °F 62% 29.64 in 10.0 mi SSE 5.8 mph - N/A   Clear
6:14 AM 53.6 °F 42.8 °F 67% 29.66 in 10.0 mi South 8.1 mph - N/A   Clear
6:33 AM 57.2 °F 42.8 °F 59% 29.64 in 10.0 mi South 8.1 mph - N/A   Clear
6:53 AM 57.2 °F 44.6 °F 63% 29.64 in 10.0 mi South 6.9 mph - N/A   Clear
7:14 AM 62.6 °F 44.6 °F 52% 29.64 in 10.0 mi SSE 4.6 mph - N/A   Clear
7:33 AM 64.4 °F 42.8 °F 45% 29.60 in 10.0 mi SE 9.2 mph - N/A   Clear
7:53 AM 69.8 °F 41.0 °F 35% 29.62 in 10.0 mi SSE 13.8 mph - N/A   Clear
8:14 AM 71.6 °F 41.0 °F 33% 29.63 in 10.0 mi South 18.4 mph - N/A   Clear
8:33 AM 69.8 °F 41.0 °F 35% 29.64 in 10.0 mi South 18.4 mph - N/A   Clear
8:53 AM 68.0 °F 44.6 °F 43% 29.66 in 10.0 mi South 11.5 mph 16.1 mph N/A Rain Light Rain
9:13 AM 66.2 °F 48.2 °F 52% 29.64 in 10.0 mi South 12.7 mph 16.1 mph N/A Rain Light Rain
9:33 AM 68.0 °F 46.4 °F 46% 29.62 in 10.0 mi SSE 15.0 mph - N/A   Clear
9:53 AM 69.8 °F 46.4 °F 43% 29.57 in 10.0 mi SSE 20.7 mph - N/A Rain Light Rain
10:13 AM 73.4 °F 46.4 °F 38% 29.55 in 10.0 mi SE 17.3 mph 20.7 mph N/A   Clear
10:33 AM 80.6 °F 44.6 °F 28% 29.54 in 10.0 mi ESE 11.5 mph 16.1 mph N/A   Clear
10:54 AM 84.2 °F 44.6 °F 25% 29.52 in 10.0 mi SE 16.1 mph - N/A   Clear
11:13 AM 87.8 °F 44.6 °F 22% 29.53 in 10.0 mi SSE 16.1 mph - N/A   Clear
11:33 AM 89.6 °F 42.8 °F 20% 29.54 in 10.0 mi South 23.0 mph - N/A   Clear
11:54 AM 89.6 °F 44.6 °F 21% 29.55 in 10.0 mi South 19.6 mph 26.5 mph N/A   Clear
12:13 PM 89.6 °F 44.6 °F 21% 29.55 in 10.0 mi SW 16.1 mph 25.3 mph N/A   Clear
12:33 PM 89.6 °F 44.6 °F 21% 29.55 in 10.0 mi SW 17.3 mph 21.9 mph N/A   Clear
12:54 PM 89.6 °F 46.4 °F 22% 29.56 in 10.0 mi WSW 12.7 mph - N/A   Clear
1:13 PM 89.6 °F 46.4 °F 22% 29.56 in 10.0 mi WSW 10.4 mph 18.4 mph N/A   Clear
1:33 PM 91.4 °F 46.4 °F 21% 29.55 in 10.0 mi West 13.8 mph 18.4 mph N/A   Clear
1:54 PM 91.4 °F 46.4 °F 21% 29.55 in 10.0 mi West 15.0 mph 20.7 mph N/A   Clear
2:13 PM 91.4 °F 46.4 °F 21% 29.55 in 10.0 mi WNW 17.3 mph 23.0 mph N/A   Clear
2:33 PM 93.2 °F 42.8 °F 17% 29.55 in 10.0 mi West 19.6 mph 25.3 mph N/A   Clear
2:54 PM 93.2 °F 39.2 °F 15% 29.55 in 10.0 mi WNW 29.9 mph 38.0 mph N/A   Clear
3:13 PM 93.2 °F 39.2 °F 15% 29.56 in 10.0 mi West 27.6 mph 35.7 mph N/A   Clear
3:33 PM 91.4 °F 41.0 °F 17% 29.56 in 10.0 mi West 28.8 mph 40.3 mph N/A   Clear
3:54 PM 91.4 °F 37.4 °F 15% 29.56 in 10.0 mi West 32.2 mph 39.1 mph N/A   Clear
4:13 PM 91.4 °F 35.6 °F 14% 29.57 in 10.0 mi West 31.1 mph 40.3 mph N/A   Clear
4:33 PM 89.6 °F 37.4 °F 16% 29.58 in 10.0 mi WNW 29.9 mph 40.3 mph N/A   Clear
4:53 PM 87.8 °F 33.8 °F 15% 29.59 in 10.0 mi WNW 27.6 mph 38.0 mph N/A   Clear
5:13 PM 84.2 °F 30.2 °F 14% 29.59 in 10.0 mi West 34.5 mph 39.1 mph N/A   Clear
5:33 PM 84.2 °F 28.4 °F 13% 29.59 in 10.0 mi West 34.5 mph 40.3 mph N/A   Clear
5:53 PM 84.2 °F 28.4 °F 13% 29.60 in 10.0 mi West 28.8 mph 40.3 mph N/A   Clear
6:13 PM 82.4 °F 30.2 °F 15% 29.60 in 10.0 mi WNW 31.1 mph 38.0 mph N/A   Clear
6:34 PM 80.6 °F 32.0 °F 17% 29.61 in 10.0 mi WNW 25.3 mph 35.7 mph N/A   Clear
6:53 PM 80.6 °F 33.8 °F 18% 29.62 in 10.0 mi WNW 24.2 mph 39.1 mph N/A   Clear
7:13 PM 78.8 °F 35.6 °F 21% 29.62 in 10.0 mi WNW 24.2 mph 40.3 mph N/A   Clear
7:34 PM 77.0 °F 35.6 °F 22% 29.63 in 10.0 mi WNW 29.9 mph 42.6 mph N/A   Clear
7:53 PM 75.2 °F 37.4 °F 25% 29.64 in 10.0 mi WNW 26.5 mph 36.8 mph N/A   Clear
8:13 PM 73.4 °F 41.0 °F 31% 29.65 in 10.0 mi WNW 25.3 mph 34.5 mph N/A   Clear
8:34 PM 71.6 °F 41.0 °F 33% 29.66 in 10.0 mi WNW 23.0 mph 28.8 mph N/A   Clear
8:53 PM 69.8 °F 42.8 °F 38% 29.68 in 10.0 mi WNW 24.2 mph 38.0 mph N/A   Clear
9:13 PM 68.0 °F 42.8 °F 40% 29.69 in 10.0 mi WNW 27.6 mph 32.2 mph N/A   Clear
9:34 PM 66.2 °F 42.8 °F 43% 29.71 in 10.0 mi WNW 29.9 mph 39.1 mph N/A   Clear
9:53 PM 64.4 °F 42.8 °F 45% 29.72 in 10.0 mi WNW 26.5 mph 36.8 mph N/A   Clear
10:13 PM 64.4 °F 42.8 °F 45% 29.74 in 10.0 mi WNW 18.4 mph - N/A   Clear
10:34 PM 62.6 °F 44.6 °F 52% 29.75 in 10.0 mi WNW 18.4 mph 24.2 mph N/A   Clear
10:53 PM 62.6 °F 44.6 °F 52% 29.75 in 10.0 mi WNW 19.6 mph 25.3 mph N/A   Clear
11:13 PM 62.6 °F 44.6 °F 52% 29.76 in 10.0 mi WNW 16.1 mph 24.2 mph N/A   Clear
11:34 PM 60.8 °F 44.6 °F 55% 29.77 in 10.0 mi NW 17.3 mph 23.0 mph N/A   Clear
11:53 PM 60.8 °F 42.8 °F 52% 29.79 in 10.0 mi NW 15.0 mph - N/A   Clear